When you browse on this site, cookies collect data to enhance your experience and personalize the content and advertising you see.
Visit our Privacy Policy to learn more. By continuing to use the site, you agree to this use of cookies and data.
  • In Österreich
  • Länderverzeichnis
  • Für 7 Tage
  • Wassertemperatur
  • Satellitenkarten
  • Wetterkarte
  • News
  • Widgets
  • user-avatar
    Anmelden

    Stündliche Wetter Mardan

    Heute, 11 Dezember, Dienstag

    Zeit Temperatur Niederschläge Wind Luftdruck Luftfeuchtigkeit
    00:00 +13°C° 0 mm 2 m/S 737 mmHg 60%
    01:00 +13°C° 0 mm 2 m/S 737 mmHg 59%
    02:00 +12°C° 0 mm 2 m/S 737 mmHg 58%
    03:00 +12°C° 0 mm 2 m/S 737 mmHg 57%
    04:00 +12°C° 0 mm 2 m/S 737 mmHg 56%
    05:00 +12°C° 0 mm 1 m/S 736 mmHg 57%
    06:00 +12°C° 0.1 mm 1 m/S 736 mmHg 55%
    07:00 +12°C° 0.1 mm 1 m/S 736 mmHg 53%
    08:00 +12°C° 0.1 mm 1 m/S 737 mmHg 50%
    09:00 +14°C° 0.1 mm 1 m/S 737 mmHg 45%
    10:00 +15°C° 0.1 mm 1 m/S 737 mmHg 39%
    11:00 +18°C° 0.1 mm 1 m/S 737 mmHg 34%
    12:00 +17°C° 0.1 mm 2 m/S 736 mmHg 32%
    13:00 +18°C° 0.1 mm 2 m/S 736 mmHg 31%
    14:00 +19°C° 0.1 mm 2 m/S 736 mmHg 29%
    15:00 +18°C° 0 mm 2 m/S 736 mmHg 32%
    16:00 +17°C° 0 mm 2 m/S 736 mmHg 34%
    17:00 +16°C° 0 mm 2 m/S 736 mmHg 36%
    18:00 +16°C° 0 mm 2 m/S 736 mmHg 37%
    19:00 +15°C° 0 mm 2 m/S 736 mmHg 39%
    20:00 +14°C° 0 mm 2 m/S 737 mmHg 40%
    21:00 +14°C° 0 mm 2 m/S 737 mmHg 40%
    22:00 +13°C° 0 mm 2 m/S 737 mmHg 39%
    23:00 +13°C° 0 mm 2 m/S 737 mmHg 39%

    Morgen, 12 Dezember, Mittwoch

    Zeit Temperatur Niederschläge Wind Luftdruck Luftfeuchtigkeit
    00:00 +13°C° 0 mm 2 m/S 737 mmHg 38%
    01:00 +12°C° 0 mm 2 m/S 737 mmHg 37%
    02:00 +12°C° 0 mm 2 m/S 737 mmHg 37%
    03:00 +12°C° 0 mm 2 m/S 737 mmHg 36%
    04:00 +10°C° 0 mm 2 m/S 737 mmHg 36%
    05:00 +10°C° 0 mm 2 m/S 737 mmHg 36%
    06:00 +10°C° 0 mm 2 m/S 737 mmHg 35%
    07:00 +10°C° 0 mm 2 m/S 737 mmHg 35%
    08:00 +10°C° 0 mm 2 m/S 738 mmHg 35%
    09:00 +13°C° 0 mm 2 m/S 738 mmHg 30%
    10:00 +15°C° 0 mm 2 m/S 738 mmHg 26%
    11:00 +17°C° 0 mm 2 m/S 738 mmHg 22%
    12:00 +18°C° 0 mm 2 m/S 738 mmHg 20%
    13:00 +18°C° 0 mm 2 m/S 738 mmHg 19%
    14:00 +19°C° 0 mm 2 m/S 737 mmHg 18%
    15:00 +18°C° 0 mm 2 m/S 737 mmHg 20%
    16:00 +17°C° 0 mm 2 m/S 737 mmHg 22%
    17:00 +16°C° 0 mm 2 m/S 737 mmHg 24%
    18:00 +15°C° 0 mm 2 m/S 738 mmHg 25%
    19:00 +15°C° 0 mm 2 m/S 738 mmHg 26%
    20:00 +14°C° 0 mm 2 m/S 739 mmHg 28%
    21:00 +13°C° 0 mm 2 m/S 739 mmHg 28%
    22:00 +13°C° 0 mm 2 m/S 739 mmHg 28%
    23:00 +12°C° 0 mm 2 m/S 739 mmHg 28%

    übermorgen, 13 Dezember, Donnerstag

    Zeit Temperatur Niederschläge Wind Luftdruck Luftfeuchtigkeit
    00:00 +12°C° 0 mm 2 m/S 739 mmHg 27%
    01:00 +12°C° 0 mm 2 m/S 739 mmHg 27%
    02:00 +10°C° 0 mm 2 m/S 739 mmHg 26%
    03:00 +10°C° 0 mm 2 m/S 739 mmHg 26%
    04:00 +10°C° 0 mm 2 m/S 739 mmHg 25%
    05:00 +9°C° 0 mm 2 m/S 739 mmHg 25%
    06:00 +9°C° 0 mm 2 m/S 739 mmHg 24%
    07:00 +10°C° 0 mm 2 m/S 739 mmHg 24%
    08:00 +10°C° 0 mm 2 m/S 740 mmHg 24%
    09:00 +13°C° 0 mm 2 m/S 740 mmHg 21%
    10:00 +15°C° 0 mm 2 m/S 740 mmHg 18%
    11:00 +18°C° 0 mm 1 m/S 740 mmHg 15%
    12:00 +18°C° 0 mm 2 m/S 739 mmHg 15%
    13:00 +18°C° 0 mm 2 m/S 739 mmHg 14%
    14:00 +19°C° 0 mm 2 m/S 738 mmHg 13%
    15:00 +18°C° 0 mm 2 m/S 738 mmHg 15%
    16:00 +18°C° 0 mm 1 m/S 738 mmHg 16%
    17:00 +16°C° 0 mm 1 m/S 738 mmHg 18%
    18:00 +15°C° 0 mm 1 m/S 738 mmHg 18%
    19:00 +14°C° 0 mm 1 m/S 739 mmHg 19%
    20:00 +14°C° 0 mm 2 m/S 740 mmHg 19%
    21:00 +13°C° 0 mm 2 m/S 739 mmHg 19%
    22:00 +13°C° 0 mm 2 m/S 739 mmHg 19%
    23:00 +12°C° 0 mm 2 m/S 739 mmHg 20%

    14 Dezember, Freitag

    Zeit Temperatur Niederschläge Wind Luftdruck Luftfeuchtigkeit
    00:00 +12°C° 0 mm 2 m/S 739 mmHg 19%
    01:00 +10°C° 0 mm 2 m/S 739 mmHg 19%
    02:00 +10°C° 0 mm 2 m/S 739 mmHg 19%
    03:00 +10°C° 0 mm 2 m/S 739 mmHg 19%
    04:00 +9°C° 0 mm 2 m/S 739 mmHg 18%
    05:00 +9°C° 0 mm 2 m/S 739 mmHg 18%
    06:00 +9°C° 0 mm 2 m/S 739 mmHg 18%
    07:00 +9°C° 0 mm 2 m/S 740 mmHg 18%
    08:00 +9°C° 0 mm 2 m/S 740 mmHg 18%
    09:00 +13°C° 0 mm 1 m/S 740 mmHg 16%
    10:00 +15°C° 0 mm 1 m/S 740 mmHg 14%
    11:00 +18°C° 0 mm 1 m/S 740 mmHg 12%
    12:00 +19°C° 0 mm 1 m/S 739 mmHg 11%
    13:00 +20°C° 0 mm 1 m/S 739 mmHg 11%
    14:00 +20°C° 0 mm 2 m/S 738 mmHg 10%
    15:00 +19°C° 0 mm 1 m/S 738 mmHg 12%
    16:00 +18°C° 0 mm 1 m/S 739 mmHg 14%
    17:00 +16°C° 0 mm 1 m/S 739 mmHg 16%
    18:00 +15°C° 0 mm 1 m/S 739 mmHg 16%
    19:00 +14°C° 0 mm 1 m/S 740 mmHg 16%
    20:00 +14°C° 0 mm 1 m/S 740 mmHg 16%
    21:00 +13°C° 0 mm 1 m/S 740 mmHg 16%
    22:00 +13°C° 0 mm 2 m/S 740 mmHg 16%
    23:00 +12°C° 0 mm 2 m/S 740 mmHg 16%

    15 Dezember, Samstag

    Zeit Temperatur Niederschläge Wind Luftdruck Luftfeuchtigkeit
    00:00 +12°C° 0 mm 2 m/S 740 mmHg 16%
    01:00 +10°C° 0 mm 2 m/S 740 mmHg 16%
    02:00 +10°C° 0 mm 2 m/S 739 mmHg 15%
    03:00 +10°C° 0 mm 2 m/S 739 mmHg 15%
    04:00 +10°C° 0 mm 2 m/S 739 mmHg 14%
    05:00 +9°C° 0 mm 2 m/S 739 mmHg 14%
    06:00 +9°C° 0 mm 2 m/S 739 mmHg 14%
    07:00 +10°C° 0 mm 2 m/S 739 mmHg 15%
    08:00 +11°C° 0 mm 1 m/S 739 mmHg 15%
    09:00 +13°C° 0 mm 1 m/S 739 mmHg 13%
    10:00 +15°C° 0 mm 1 m/S 739 mmHg 12%
    11:00 +19°C° 0 mm 1 m/S 739 mmHg 10%
    12:00 +20°C° 0 mm 1 m/S 739 mmHg 10%
    13:00 +21°C° 0 mm 1 m/S 739 mmHg 10%
    14:00 +21°C° 0 mm 1 m/S 738 mmHg 9%
    15:00 +20°C° 0 mm 1 m/S 738 mmHg 12%
    16:00 +18°C° 0 mm 1 m/S 739 mmHg 14%
    17:00 +15°C° 0 mm 0 m/S 739 mmHg 16%
    18:00 +14°C° 0 mm 0 m/S 739 mmHg 16%
    19:00 +15°C° 0 mm 1 m/S 740 mmHg 16%
    20:00 +14°C° 0 mm 1 m/S 740 mmHg 16%
    21:00 +14°C° 0 mm 1 m/S 740 mmHg 17%
    22:00 +13°C° 0 mm 1 m/S 740 mmHg 17%
    23:00 +13°C° 0 mm 2 m/S 740 mmHg 17%

    16 Dezember, Sonntag

    Zeit Temperatur Niederschläge Wind Luftdruck Luftfeuchtigkeit
    00:00 +13°C° 0 mm 2 m/S 740 mmHg 16%
    01:00 +12°C° 0 mm 2 m/S 740 mmHg 16%
    02:00 +12°C° 0 mm 2 m/S 740 mmHg 16%
    03:00 +12°C° 0 mm 2 m/S 740 mmHg 15%
    04:00 +10°C° 0 mm 2 m/S 740 mmHg 15%
    05:00 +10°C° 0 mm 2 m/S 739 mmHg 15%
    06:00 +10°C° 0 mm 2 m/S 740 mmHg 15%
    07:00 +10°C° 0 mm 2 m/S 740 mmHg 15%
    08:00 +10°C° 0 mm 2 m/S 740 mmHg 15%
    09:00 +14°C° 0 mm 2 m/S 740 mmHg 13%
    10:00 +17°C° 0 mm 2 m/S 740 mmHg 12%
    11:00 +19°C° 0 mm 2 m/S 740 mmHg 10%
    12:00 +20°C° 0 mm 2 m/S 739 mmHg 9%
    13:00 +21°C° 0 mm 2 m/S 739 mmHg 9%
    14:00 +23°C° 0 mm 2 m/S 738 mmHg 8%
    15:00 +21°C° 0 mm 2 m/S 738 mmHg 10%
    16:00 +19°C° 0 mm 2 m/S 737 mmHg 11%
    17:00 +18°C° 0 mm 1 m/S 737 mmHg 13%
    18:00 +18°C° 0 mm 1 m/S 738 mmHg 13%
    19:00 +16°C° 0 mm 2 m/S 738 mmHg 13%
    20:00 +15°C° 0 mm 2 m/S 739 mmHg 13%
    21:00 +15°C° 0 mm 2 m/S 739 mmHg 13%
    22:00 +14°C° 0 mm 2 m/S 739 mmHg 13%
    23:00 +14°C° 0 mm 2 m/S 739 mmHg 13%
    Mehr zeigen